User: anonymous   Login
Location: ?????
(54.9266°N, 38.5527°E)
Time: 03:25:54
(UTC+00:00)
Language:

H-2A R/B - Orbit

View from above orbital plane
View from above orbital plane
View from above satellite
View from above satellite

Ground track
Ground track

The orbit data is extracted from the following two-line orbital elements,

1 27601U 02056E   24167.97012545  .00000414  00000-0  16261-3 0  9990
2 27601  98.2296 145.0999 0069978 244.7258 183.8044 14.32835191123610
Epoch (UTC): 15 June 2024 23:16:58
Eccentricity: 0.0069978
inclination: 98.2296°
perigee height: 732 km
apogee height: 832 km
right ascension of ascending node: 145.0999°
argument of perigee: 244.7258°
revolutions per day: 14.32835191
mean anomaly at epoch: 183.8044°
orbit number at epoch: 12361

The dashed part of the orbit path shows where the satellite is in the earth's shadow,  

DLR